User: anonymous   Login
Location: Unspecified
(0.0000°N, 0.0000°E)
Time: 03:21:01
(UTC+00:00)
Language:

Cosmos 1666 - Orbit

View from above orbital plane
View from above orbital plane
View from above satellite
View from above satellite

Ground track
Ground track

The orbit data is extracted from the following two-line orbital elements,

1 15889U 85058A   18202.82014451  .00000697  00000-0  32348-4 0  9991
2 15889  82.4897 318.9072 0018774 110.1056  48.2593 15.18165798802789
Epoch (UTC): 21 July 2018 19:41:00
Eccentricity: 0.0018774
inclination: 82.4897°
perigee height: 498 km
apogee height: 524 km
right ascension of ascending node: 318.9072°
argument of perigee: 110.1056°
revolutions per day: 15.18165798
mean anomaly at epoch: 48.2593°
orbit number at epoch: 80278

The dashed part of the orbit path shows where the satellite is in the earth's shadow,  

DLR